Regional Weather Roundup
Issued by NWS

Home | Current Version | Previous Version | Graphics & Text | Print | Product List | Glossary On
Versions: 1 2 3 4 5 6 7 8 9 10 11 12 13 14 15 16 17 18 19 20 21 22 23 24 25 26 27 28 29 30 31 32 33 34 35 36 37 38 39 40 41 42 43 44 45 46 47 48 49 50
000
ASUS43 KLOT 201609
RWRIL

ILLINOIS REGIONAL WEATHER ROUNDUP
NATIONAL WEATHER SERVICE CHICAGO/ROMEOVILLE IL
1100 AM CDT FRI OCT 20 2017

NOTE: "FAIR" INDICATES FEW OR NO CLOUDS BELOW 12,000 FEET WITH NO
SIGNIFICANT WEATHER AND/OR OBSTRUCTIONS TO VISIBILITY.

* THESE STATIONS ARE NOT UNDER NWS QUALITY CONTROL. THEY ALSO MAY NOT
  REPORT WEATHER SUCH AS PRECIPITATION OR FOG.

ILZ001-002-007-009-015-016-024-201700-
NORTHWEST ILLINOIS

CITY           SKY/WX    TMP DP  RH WIND       PRES   REMARKS
MOLINE         SUNNY     70  53  54 S10       30.12F
STERLING*      SUNNY     68  53  58 VRB5        N/A
SAVANNA*       SUNNY     67  53  59 S9        30.13S
$$

ILZ003-004-008-010-011-017-018-201700-
NORTH CENTRAL ILLINOIS

CITY           SKY/WX    TMP DP  RH WIND       PRES   REMARKS
ROCKFORD       MOSUNNY   67  51  56 SW7       30.15F
FREEPORT*      SUNNY     68  52  55 SW13      30.15S
ROCHELLE*      SUNNY     70  52  53 SW7       30.15F
DE KALB*       SUNNY     68  53  59 SW7       30.17F
PERU*          SUNNY     67  51  56 SW7       30.17F
$$

ILZ005-006-012>014-019>023-201700-
NORTHEAST ILLINOIS

CITY           SKY/WX    TMP DP  RH WIND       PRES   REMARKS
CHICAGO-OHARE  MOSUNNY   69  51  52 SW8       30.16F
CHICAGO-MIDWAY MOSUNNY   70  52  52 SW12      30.17F
AURORA         SUNNY     67  54  63 SW8       30.17F
LANSING*       SUNNY     70  55  60 S10       30.19F
JOLIET*        SUNNY     69  54  59 SW5       30.18F
WAUKEGAN       CLOUDY    70  54  56 SW12      30.14F
DUPAGE AIRPORT SUNNY     67  53  61 SW12      30.16F
KANKAKEE*      SUNNY     69  54  58 S8        30.21F
WHEELING       SUNNY     69  53  56 S9        30.17F
MORRIS*        SUNNY     70  52  53 SW7       30.17F
ROMEOVILLE*    SUNNY     69  53  57 SW7       30.18F
NORTHERLY ISL    N/A     68  48  48 SW9         N/A
$$

LMZ740>746-201700-
SOUTHERN LAKE MICHIGAN

STATION/POSITION SKY/WX   TEMP    WIND        PRES    VSBY  WAVE
                          AIR SEA DIR/SP/G                  HT/PER
                          (F)     (DEG/KT/KT) (MB)    (MI)  (FT/S)
$$

ILZ025>027-034>036-040-047-049-050-058-095>099-201700-
WEST-CENTRAL ILLINOIS

CITY           SKY/WX    TMP DP  RH WIND       PRES   REMARKS
GALESBURG*     SUNNY     76  62  61 SW8       30.15F
MACOMB*        SUNNY     70  52  52 S7        30.17F
JACKSONVILLE*  SUNNY     69  53  56 S7        30.18F
PITTSFIELD*    SUNNY     69  54  58 S9        30.18S
$$

ILZ028>032-037-038-041>044-048-051>054-059>061-201700-
CENTRAL ILLINOIS

CITY           SKY/WX    TMP DP  RH WIND       PRES   REMARKS
PONTIAC        SUNNY     70  55  58 S9        30.20S
BLOOMINGTON    SUNNY     69  55  60 S8        30.20F
DECATUR        SUNNY     69  53  56 SW9       30.22F
PEORIA         SUNNY     66  54  65 S5        30.17F
LACON*         SUNNY     67  53  61 SW6       30.16F
LINCOLN*       SUNNY     70  55  59 SW7       30.19F
SPRINGFIELD    SUNNY     70  55  59 S8        30.19F
TAYLORVILLE    SUNNY     69  53  56 S8        30.22S
$$

ILZ033-039-045-046-055>057-062-063-201700-
EAST-CENTRAL ILLINOIS

CITY           SKY/WX    TMP DP  RH WIND       PRES   REMARKS
CHAMPAIGN      SUNNY     73  51  46 S12       30.22F
DANVILLE*      SUNNY     70  53  54 SW6       30.20F
RANTOUL*       SUNNY     71  55  56 S9        30.21F
MATTOON        SUNNY     68  55  63 S6        30.23F
PARIS*         SUNNY     72  54  54 S10       30.25F
$$

ILZ079-100>102-201700-
SOUTHWEST ILLINOIS

CITY           SKY/WX    TMP DP  RH WIND       PRES   REMARKS
ALTON          PTSUNNY   66  55  68 SE6       30.22F
BELLEVILLE     SUNNY     68  51  54 S6        30.25F
CAHOKIA*       SUNNY     70  52  52 SE7       30.22F
SPARTA*        SUNNY     66  53  62 SE3       30.25F
$$

ILZ064>066-069>071-074>076-080>082-084>086-088>090-092>094-201700-
SOUTH-CENTRAL ILLINOIS

CITY           SKY/WX    TMP DP  RH WIND       PRES   REMARKS
CARBONDALE     SUNNY     68  55  63 S6        30.24F
CAIRO*         SUNNY     66  56  70 SE5       30.25F
EFFINGHAM*     SUNNY     70  54  57 S9        30.26S
MARION         SUNNY     68  54  60 S9        30.27S
MT. VERNON     SUNNY     68  55  63 SW8       30.26F
CENTRALIA*     SUNNY     71  54  55 S5        30.24F
SALEM*         SUNNY     72  52  49 S8        30.24F
METROPOLIS*    CLOUDY    66  55  66 CALM      30.27F
$$

ILZ067-068-072-073-078-083-087-091-201700-
SOUTHEAST ILLINOIS

CITY           SKY/WX    TMP DP  RH WIND       PRES   REMARKS
LAWRENCEVILLE  SUNNY     68  55  63 SW6       30.26F
FLORA*         SUNNY     70  54  56 SW8       30.26S
FAIRFIELD*     SUNNY     68  54  59 S5        30.25S
ROBINSON*      SUNNY     68  54  60 S5        30.27S
CARMI*         SUNNY     69  55  60 SW6       30.27S
$$

ABBREVIATIONS USED IN REMARKS
   TC - TEMPERATURE IN CELSIUS
  WCI - WIND CHILL INDEX
   HX - HEAT INDEX
  VSB - VISIBILITY
$$





USA.gov is the U.S. government's official web portal to all federal, state and local government web resources and services.